Weather Roundup
Issued by NWS

Home | Current Version | Previous Version | Graphics & Text | Print | Product List | Glossary Off
Versions: 1 2 3 4 5 6 7 8 9 10 11 12 13 14 15 16 17 18 19 20 21 22 23 24 25 26 27 28 29 30 31 32 33 34 35 36 37 38 39 40 41 42 43 44 45 46 47 48 49 50

000
NZUS93 KARX 280410
HRRWXR

CURRENT HOURLY OBSERVATIONS ACROSS
MUCH OF THE UPPER MISSISSIPPI VALLEY
NATIONAL WEATHER SERVICE LA CROSSE WI
1100 PM CDT THU AUG 27 2015


...SOUTHEAST MINNESOTA...


CITY           SKY/WX    TMP DP  RH WIND       PRES   REMARKS
ROCHESTER      CLOUDY    63  59  87 S10       30.06R
ROCHESTER/MAYO FAIR      64  60  85 SE9       30.05S
WINONA         CLOUDY    66  61  82 CALM      30.05R
AUSTIN         CLOUDY    64  61  88 S3        30.06R
ALBERT LEA     LGT RAIN  64  61  88 S7        30.04F
DODGE CENTER   CLOUDY    63  59  88 S7        30.05R
PRESTON        CLOUDY    62  58  88 S7        30.07S
OWATONNA       CLOUDY    64  59  82 SE8       30.03F
FARIBAULT      CLOUDY    64  61  88 S7        30.03F
$$

...ELSEWHERE IN MINNESOTA...


CITY           SKY/WX    TMP DP  RH WIND       PRES   REMARKS
MINNEAPOLIS    MOCLDY    68  59  73 S12       30.01R
INTNL FALLS    CLOUDY    66  61  84 CALM      29.93F
DULUTH         CLOUDY    60  52  74 SE5       30.00S
RED WING       MOCLDY    66  59  77 SE7       30.01S
REDWOOD FALLS  CLOUDY    65  62  90 E6        29.96F
MANKATO        CLOUDY    64  57  77 S8        30.01S
WORTHINGTON    CLOUDY    63  57  82 S16G22    29.99S
FAIRMONT       CLOUDY    64  55  72 S12       30.01S
$$

...SOUTHWEST WISCONSIN...


CITY           SKY/WX    TMP DP  RH WIND       PRES   REMARKS
LA CROSSE      MOCLDY    65  59  81 SE3       30.05S
PRAIRIE DU CHI MOCLDY    65  58  77 CALM      30.07F
BOSCOBEL       MOCLDY    62  59  90 CALM      30.09F
LONE ROCK      CLEAR     59  56  89 E7        30.10F
PLATTEVILLE    PTCLDY    63  60  90 SE6       30.11R
FORT MC COY    PTCLDY    58  56  92 CALM      30.07F
CAMP DOUGLAS   MOCLDY    61  61 100 S7        30.08F
VIROQUA        FAIR      61  59  92 SE6       30.08F
WIS DELLS      CLEAR     62  57  82 S7        30.10F
$$

...ELSEWHERE IN WISCONSIN...


CITY           SKY/WX    TMP DP  RH WIND       PRES   REMARKS
MILWAUKEE      MOCLDY    61  55  81 S6        30.13F
MADISON        MOCLDY    65  57  75 S7        30.11S
GREEN BAY      PTCLDY    60  56  86 S7        30.09F
EAU CLAIRE     MOCLDY    65  58  78 S7        30.03F
BLACK RVR FLS  MOCLDY    58  58 100 CALM      30.05F
MEDFORD        MOCLDY    59  57  94 S6        30.07F
WAUSAU         PTCLDY    62  58  86 CALM      30.06F
WIS RAPIDS     MOCLDY    63  56  78 S6        30.09F
MARSHFIELD     MOCLDY    61  56  83 S5        30.08S
RICE LAKE      PTCLDY    61  57  86 SE5       30.04F
$$

...NORTHEAST IOWA...


CITY           SKY/WX    TMP DP  RH WIND       PRES   REMARKS
DECORAH        CLOUDY    64  61  88 SE8       30.06S
MASON CITY     CLOUDY    64  61  90 S13       30.06F
CHARLES CITY   CLOUDY    64  63  94 SE8       30.06F
OELWEIN        CLOUDY    61  59  94 SE7       30.09S
$$

...ELSEWHERE IN IOWA...


CITY           SKY/WX    TMP DP  RH WIND       PRES   REMARKS
DES MOINES     MOCLDY    69  60  73 SE14G21   30.03R
IOWA CITY      CLEAR     63  58  83 SE5       30.09R
FORT DODGE     CLOUDY    63  59  88 E6        30.04S
$$

...NORTHERN ILLINOIS...


CITY           SKY/WX    TMP DP  RH WIND       PRES   REMARKS
CHICAGO-OHARE  PTCLDY    60  55  83 CALM      30.14S
CHICAGO-MIDWAY PTCLDY    67  58  72 E5        30.14R
MOLINE         PTCLDY    62  58  86 E3        30.10R
ROCKFORD       PTCLDY    59  55  87 SE6       30.13F
PEORIA         CLEAR     64  57  78 E5        30.11F
$$

NOTE: "FAIR" INDICATES FEW OR NO CLOUDS BELOW 12,000 FEET WITH NO
SIGNIFICANT WEATHER AND/OR OBSTRUCTIONS TO VISIBILITY. WIND
SPEEDS ARE IN MILES-PER-HOUR.



USA.gov is the U.S. government's official web portal to all federal, state and local government web resources and services.